Salt Lake City, UT

12:43 AM MDT on May 24, 2018 (GMT -0600)
Salt Lake City International

Weather History for KSLC - August, 2013

Change the Weather History Date:

Thursday, August 22, 2013

  Actual Average Record
Temperature  
Mean Temperature 84 °F 76 °F  
Max Temperature 95 °F 89 °F 101 °F (2009)
Min Temperature 73 °F 62 °F 45 °F (1933)
Degree Days  
Heating Degree Days 0 0  
Month to date heating degree days 0 0  
Since 1 June heating degree days 4 48  
Since 1 July heating degree days 0 2  
Cooling Degree Days 19 11  
Month to date cooling degree days 421 289  
Year to date cooling degree days 1413 951  
Since 1 June cooling degree days 1343 901  
Growing Degree Days 34 (Base 50)    
Moisture  
Dew Point 49 °F    
Average Humidity 32    
Maximum Humidity 47    
Minimum Humidity 16    
Precipitation  
Precipitation T in 0.02 in 1.04 in (1960)
Month to date precipitation 0.03 0.45  
Year to date precipitation 7.31 10.27  
Snow  
Snow 0.00 in 0.00 in - ()
Month to date snowfall 0.0 0.0  
Since 1 July snowfall 0.0 0.0  
Snow Depth 0.00 in    
Sea Level Pressure  
Sea Level Pressure 29.93 in    
Wind  
Wind Speed 6 mph (SSE)    
Max Wind Speed 22 mph    
Max Gust Speed 33 mph    
Visibility 10 miles    
Events Rain , Thunderstorm    
T = Trace of Precipitation, MM = Missing Value Source: NWS Daily Summary

Daily Weather History Graph

Daily Weather History Graph

Search for Another Location

Airport or City:

Astronomy

Aug. 22, 2013 Rise Set
Actual Time 6:45 AM MDT 8:15 PM MDT
Civil Twilight 6:16 AM MDT 8:44 PM MDT
Nautical Twilight 5:41 AM MDT 9:18 PM MDT
Astronomical Twilight 5:04 AM MDT 9:55 PM MDT
Moon 9:00 PM MDT (8/22) 8:39 AM MDT (8/22)
Length of Visible Light 14h 27m
Length of Day
13h 30m
Waning Gibbous, 96% of the Moon is Illuminated
Aug 22
Waning Gibbous
Aug 28
Last Quarter
Sep 5
New
Sep 12
First Quarter
Sep 19
Full

Hourly Weather History & Observations

Time (MDT) Temp. Dew Point Humidity Pressure Visibility Wind Dir Wind Speed Gust Speed Precip Events Conditions
12:53 AM 78.1 °F 53.1 °F 42% 29.93 in 10.0 mi Calm Calm - N/A   Mostly Cloudy
1:53 AM 75.9 °F 54.0 °F 46% 29.94 in 10.0 mi Calm Calm - N/A   Mostly Cloudy
2:53 AM 75.9 °F 50.0 °F 40% 29.94 in 10.0 mi South 3.5 mph - N/A   Mostly Cloudy
3:53 AM 75.0 °F 48.0 °F 38% 29.94 in 10.0 mi SE 4.6 mph - N/A   Mostly Cloudy
4:53 AM 73.9 °F 48.9 °F 41% 29.95 in 10.0 mi South 3.5 mph - N/A   Mostly Cloudy
5:53 AM 75.0 °F 48.9 °F 40% 29.96 in 10.0 mi ESE 5.8 mph - N/A   Mostly Cloudy
6:53 AM 75.0 °F 51.1 °F 43% 29.97 in 10.0 mi Calm Calm - N/A   Mostly Cloudy
7:53 AM 75.0 °F 51.1 °F 43% 29.97 in 10.0 mi Calm Calm - N/A   Mostly Cloudy
8:53 AM 79.0 °F 51.1 °F 38% 29.96 in 10.0 mi SSE 9.2 mph - N/A   Mostly Cloudy
9:53 AM 82.9 °F 51.1 °F 33% 29.95 in 10.0 mi South 11.5 mph - N/A   Scattered Clouds
10:53 AM 84.9 °F 50.0 °F 30% 29.96 in 10.0 mi ESE 6.9 mph - N/A   Scattered Clouds
11:53 AM 88.0 °F 46.9 °F 24% 29.95 in 10.0 mi SSE 5.8 mph - N/A   Scattered Clouds
12:53 PM 91.0 °F 48.0 °F 23% 29.92 in 10.0 mi Variable 3.5 mph - N/A   Scattered Clouds
1:53 PM 91.9 °F 45.0 °F 20% 29.90 in 10.0 mi SE 6.9 mph - N/A   Scattered Clouds
2:42 PM 91.4 °F 44.6 °F 20% 30.07 in 10.0 mi Calm Calm - N/A Thunderstorm Thunderstorm
2:53 PM 93.0 °F 45.0 °F 19% 29.87 in 10.0 mi Variable 4.6 mph - N/A Thunderstorm Thunderstorm
3:23 PM 91.4 °F 42.8 °F 18% 30.06 in 10.0 mi SSW 5.8 mph - N/A   Mostly Cloudy
3:53 PM 91.0 °F 37.9 °F 15% 29.86 in 10.0 mi SSE 12.7 mph 33.4 mph 0.00 in Rain Light Rain
4:53 PM 91.9 °F 37.0 °F 15% 29.82 in 10.0 mi SSE 4.6 mph - 0.00 in   Mostly Cloudy
5:53 PM 91.9 °F 37.0 °F 15% 29.81 in 10.0 mi Calm Calm - N/A   Mostly Cloudy
6:53 PM 89.1 °F 44.1 °F 21% 29.80 in 10.0 mi North 3.5 mph - 0.00 in   Mostly Cloudy
7:53 PM 82.0 °F 51.1 °F 34% 29.83 in 10.0 mi WNW 20.7 mph 29.9 mph N/A Thunderstorm Thunderstorm
8:09 PM 82.4 °F 51.8 °F 35% 30.01 in 10.0 mi WNW 13.8 mph - N/A   Mostly Cloudy
8:26 PM 82.4 °F 50.0 °F 32% 30.05 in 10.0 mi WNW 16.1 mph - N/A Thunderstorm Thunderstorm
8:53 PM 77.0 °F 57.9 °F 52% 29.91 in 10.0 mi NW 12.7 mph 17.3 mph 0.00 in Rain , Thunderstorm Light Thunderstorms and Rain
9:06 PM 75.2 °F 57.2 °F 53% 30.08 in 10.0 mi WNW 15.0 mph - 0.01 in Rain Light Rain
9:28 PM 75.2 °F 55.4 °F 50% 30.11 in 10.0 mi ENE 4.6 mph - 0.01 in Thunderstorm Thunderstorm
9:53 PM 75.9 °F 57.0 °F 52% 29.96 in 10.0 mi ENE 10.4 mph - 0.01 in Rain Light Rain
10:53 PM 75.9 °F 52.0 °F 43% 29.91 in 10.0 mi East 9.2 mph - 0.01 in   Mostly Cloudy
11:53 PM 75.0 °F 51.1 °F 43% 29.86 in 10.0 mi ESE 19.6 mph 25.3 mph N/A   Mostly Cloudy